Temperature
16 17 17 17 17 17 18 19 20 20 20 20 20 20 19 18 17 15 14 14 14 14 14 14 14 14 14 14 15 15 15 15 15 15 15 15 15 15 15 15 15 15 15 15 15 15 15 15 15
16 16 17 17 17 17 18 19 19 19 19 19 19 19 18 16 15 14 13 13 13 14 14 14 14 14 14 14 14 14 15 15 15 15 15 15 15 15 15 15 15 15 15 15 15 15 15 15 15
16 16 16 17 17 17 18 19 19 19 19 19 18 17 16 15 14 13 13 13 13 13 14 14 14 14 14 14 14 14 14 14 14 14 14 14 14 14 14 15 15 15 15 15 15 15 15 15 15
15 16 17 16 16 17 18 18 18 18 18 18 17 16 14 13 12 12 13 13 13 13 13 13 13 14 14 14 14 14 14 14 14 14 14 14 14 14 14 14 14 15 14 14 14 15 15 15 14
15 16 16 16 16 17 17 17 18 18 17 17 17 16 13 12 12 13 13 13 12 12 13 13 13 13 13 13 13 14 14 14 14 14 14 14 14 14 14 14 14 14 14 14 14 14 14 14 14
15 16 16 15 16 16 16 16 16 16 16 15 15 15 12 12 12 12 12 12 12 12 12 13 13 13 13 13 13 13 13 13 13 13 13 14 14 14 14 14 14 14 14 14 14 14 14 14 14
15 15 15 16 16 15 15 15 15 15 14 13 14 14 12 11 11 11 12 12 12 12 12 12 12 12 12 13 13 13 13 13 13 13 13 13 13 13 13 14 14 14 14 14 14 14 14 14 14
13 14 15 15 15 14 14 14 13 13 12 12 12 12 10 10 10 10 11 11 11 11 12 12 12 12 12 12 12 12 12 12 12 13 13 13 13 13 13 13 13 13 13 14 14 14 14 14 14
13 13 13 14 14 13 12 12 12 11 11 10 10 9 9 9 9 10 10 11 11 11 11 11 11 11 11 12 12 12 12 12 12 12 12 12 12 12 13 13 13 13 13 13 13 13 13 13 13
12 11 11 12 12 11 11 10 10 10 10 10 9 9 8 9 9 9 9 10 10 10 10 11 11 11 11 11 11 11 11 12 12 12 12 12 12 12 12 12 12 12 13 13 13 13 13 13 13
11 10 10 10 10 10 9 9 9 9 9 9 8 7 7 8 8 8 8 8 9 9 9 10 10 10 11 11 11 11 11 11 11 11 11 11 11 12 12 12 12 12 12 12 12 12 12 12 12
10 9 9 9 8 9 8 8 8 7 8 8 7 7 7 7 7 7 8 8 8 8 9 9 9 10 10 10 10 10 10 10 10 11 11 11 11 11 11 12 11 12 12 12 12 12 12 12 12
9 8 8 7 7 7 7 7 7 7 7 7 7 6 6 6 6 7 7 7 7 8 8 9 9 9 9 9 10 10 10 10 10 10 10 10 11 11 11 11 11 11 11 11 11 11 11 11 12
8 8 7 7 7 7 7 6 6 6 6 6 6 6 6 6 6 6 6 7 7 7 8 8 8 8 9 9 9 9 9 9 9 10 10 10 10 10 10 10 10 10 11 11 11 11 11 11 11
7 7 7 7 7 7 6 6 6 6 6 6 6 6 5 5 5 5 6 6 6 6 7 7 8 8 8 8 8 9 9 9 9 9 9 9 9 10 10 10 10 10 10 10 10 11 11 11 11
8 7 7 7 8 7 6 5 6 6 6 6 5 5 5 5 5 5 5 5 6 6 6 6 7 7 7 8 8 8 8 8 9 9 9 9 9 9 9 9 10 10 10 10 10 10 11 11 11
7 7 8 7 7 7 6 5 6 6 6 5 5 5 5 5 5 5 5 5 5 5 6 6 6 6 7 7 7 7 8 8 8 8 8 9 9 9 9 9 9 9 9 10 10 10 10 10 10
6 7 7 7 6 6 5 5 6 6 6 5 5 4 4 4 4 4 4 4 5 5 5 5 5 6 6 6 7 7 7 7 8 8 8 8 8 8 9 9 9 9 9 9 9 9 10 10 10
6 6 6 6 6 5 5 5 5 6 5 5 4 4 4 4 4 4 4 4 4 4 5 5 5 5 5 6 6 6 7 7 7 7 7 8 8 8 8 8 8 8 8 9 9 9 9 9 9
5 5 5 5 6 5 4 4 5 5 4 4 3 3 3 3 3 3 4 4 4 4 4 4 5 5 5 5 5 6 6 6 7 7 7 7 7 7 8 8 8 8 8 8 8 9 9 9 9
5 4 4 4 4 5 4 4 4 4 4 4 3 3 3 3 3 3 3 3 3 3 3 4 4 4 4 5 5 5 5 6 6 6 6 7 7 7 7 7 8 8 8 8 8 8 9 8 9
4 4 4 3 3 3 4 2 4 4 3 3 3 3 2 2 2 2 2 2 3 3 3 3 4 4 4 4 4 4 4 5 5 5 6 6 6 6 7 7 7 7 7 7 8 8 8 8 8
3 4 3 3 3 2 3 2 3 3 3 2 2 2 2 1 1 2 2 2 2 2 2 3 3 3 3 4 4 4 4 4 5 5 5 5 6 6 6 6 7 7 7 7 7 8 8 8 8
3 3 3 3 3 2 3 2 2 2 2 2 2 1 1 1 1 1 1 1 1 2 2 2 2 2 3 3 3 3 4 4 4 4 5 5 5 5 5 6 6 6 6 7 7 7 7 7 8
2 2 2 2 2 2 3 2 1 2 2 1 1 1 0 0 0 1 1 1 1 1 1 1 1 2 2 2 2 3 3 3 4 4 4 4 5 5 5 5 5 6 6 6 6 7 7 7 7
2 2 1 1 2 3 2 1 1 1 1 1 1 0 -0 -0 -0 -0 0 0 0 1 1 1 1 1 1 1 2 2 2 3 3 3 4 4 4 4 4 5 5 5 5 6 6 6 6 7 7
1 1 1 1 1 1 2 2 1 1 0 0 -0 -1 -1 -1 -1 -1 -0 -0 -0 0 0 0 0 1 1 1 1 2 2 2 3 3 3 3 3 4 4 4 4 5 5 5 5 6 6 6 6
1 1 -0 -0 0 1 2 2 1 -0 -0 -1 -1 -1 -1 -1 -1 -1 -1 -1 -0 -0 -0 -0 -0 0 0 1 1 1 2 2 2 3 3 3 3 3 3 4 4 4 4 5 5 5 5 5 6
-1 -1 -1 -0 -0 0 0 1 1 -0 -1 -1 -1 -1 -1 -2 -2 -1 -1 -1 -1 -1 -1 -1 -1 -0 -0 -0 0 1 1 1 2 2 2 2 2 3 3 3 3 4 4 4 4 5 5 5 5
-1 -1 -1 -2 -1 -1 -1 -0 -0 -1 -1 -1 -1 -1 -2 -2 -2 -2 -2 -1 -1 -1 -1 -1 -1 -1 -1 -1 -0 0 0 1 1 1 1 2 2 2 2 2 3 3 3 3 4 4 4 4 5
Wind_Speed
18 15 6 3 3 3 5 3 1 0 1 3 5 4 4 5 4 5 3 4 5 6 7 6 6 6 7 8 8 9 9 9 8 9 9 10 10 11 11 11 12 12 13 13 13 14 14 14 14
14 9 4 3 4 5 4 4 3 0 2 2 3 3 4 5 6 6 4 4 5 7 7 6 6 7 8 8 8 8 8 8 8 8 8 9 10 11 11 11 11 12 12 13 13 13 13 13 13
10 7 3 3 3 5 3 2 2 4 4 2 3 3 3 4 5 4 4 3 5 6 7 7 8 7 8 8 8 8 8 8 8 8 8 9 10 10 11 12 12 11 12 12 12 12 12 12 12
5 3 3 3 6 4 1 2 2 3 3 3 3 4 4 5 5 4 5 4 5 6 7 8 8 8 8 8 8 8 7 7 7 8 8 8 9 10 11 11 12 11 11 11 12 12 12 11 11
3 3 3 5 8 3 1 3 3 1 2 2 2 3 4 5 8 7 5 5 5 6 7 7 7 7 7 7 8 8 7 7 7 7 8 8 8 9 10 11 11 11 10 10 10 11 11 11 10
3 3 4 7 7 4 1 3 3 3 3 3 3 1 4 6 10 8 6 6 6 6 7 7 6 6 7 7 7 7 7 7 7 7 8 8 8 9 9 10 10 10 10 10 10 10 11 10 9
2 2 4 6 5 3 1 2 2 2 2 3 4 1 3 7 9 6 5 6 7 8 8 7 6 5 5 6 6 6 7 6 6 7 7 8 8 8 8 9 9 9 9 9 10 10 10 9 8
4 2 4 5 5 3 2 2 3 4 2 3 4 2 2 5 7 5 5 6 6 7 7 6 5 4 4 4 5 5 6 6 6 6 7 8 8 8 8 8 8 9 8 8 9 9 9 8 7
4 2 3 3 2 1 4 3 3 3 1 2 3 4 4 4 5 5 5 6 6 6 5 6 6 5 4 3 4 5 6 6 6 6 6 6 5 6 7 7 8 8 8 8 9 9 8 7 6
2 1 2 4 5 3 4 5 4 2 0 1 3 5 5 6 6 5 5 5 6 5 4 4 5 5 4 2 3 3 4 4 4 4 4 3 4 5 6 8 8 8 7 7 8 8 7 6 4
1 1 1 4 6 4 3 4 3 2 2 2 2 3 4 5 5 4 4 4 4 4 4 3 5 5 5 4 2 2 2 2 3 3 3 3 4 5 6 6 6 7 6 5 6 6 5 4 3
0 2 2 3 5 4 3 3 3 3 3 3 3 2 2 3 4 4 4 4 4 4 4 3 5 5 5 4 2 2 2 1 2 2 3 3 3 2 3 4 4 5 4 4 5 3 4 5 5
2 2 1 2 2 2 2 3 4 5 4 2 1 1 1 2 3 3 4 4 4 4 4 4 4 4 4 4 3 2 2 2 1 1 2 3 2 1 2 2 3 3 4 4 3 3 3 3 3
1 1 2 2 3 2 2 4 4 5 2 1 1 1 1 1 2 3 4 4 5 4 4 4 4 4 4 3 3 2 2 1 1 0 1 2 2 1 1 2 2 2 3 4 3 3 3 3 3
2 2 3 4 4 1 1 5 5 3 1 2 2 2 2 1 1 2 3 3 4 4 4 3 4 4 4 3 3 3 2 1 1 1 0 1 2 2 1 1 1 2 3 3 3 4 4 3 2
5 4 3 2 3 3 1 6 3 1 1 2 2 2 1 2 1 2 3 3 3 3 4 3 4 4 3 4 3 3 2 2 1 0 0 1 1 2 1 1 1 2 2 2 1 2 3 2 2
3 4 3 1 2 1 3 6 3 2 3 3 3 3 2 2 2 2 2 3 3 3 3 3 3 3 3 4 3 3 2 2 1 1 1 0 0 1 0 1 1 2 1 1 1 1 3 3 2
3 4 4 3 1 2 5 8 6 4 4 3 3 3 2 2 2 2 2 2 2 2 2 3 3 3 2 2 2 2 1 1 1 1 1 0 1 1 0 1 1 2 1 1 2 2 2 3 3
6 5 6 5 2 4 7 9 8 4 3 2 3 3 2 2 2 2 2 2 2 3 3 3 2 2 1 1 1 1 1 1 1 1 1 1 1 1 1 0 1 1 2 2 2 2 3 3 3
4 5 6 4 4 6 7 9 6 4 3 1 1 2 3 3 3 3 3 2 2 3 3 3 3 3 2 1 1 2 2 2 2 1 1 1 2 2 2 1 1 1 2 3 2 2 2 3 4
4 4 5 5 7 6 6 6 4 3 3 1 0 1 2 2 3 3 3 3 3 4 3 4 3 3 2 1 1 1 1 1 1 2 2 2 3 3 2 2 2 2 2 3 3 3 2 4 3
4 4 5 6 5 3 2 5 3 2 2 1 1 2 3 4 4 4 5 5 4 4 4 4 4 4 2 1 1 2 2 3 3 3 3 2 3 3 3 3 3 2 2 4 4 3 2 4 4
3 6 6 7 6 5 4 4 5 2 2 2 2 1 3 4 4 5 5 5 5 4 4 4 4 4 3 1 2 2 3 3 2 2 3 3 2 2 2 2 2 2 2 3 4 4 4 4 4
5 5 6 5 3 4 4 4 4 1 2 2 2 2 3 4 5 4 4 4 4 4 4 4 4 4 3 2 2 2 3 3 3 3 3 3 3 2 3 2 2 3 3 4 4 4 5 5 5
3 3 2 2 2 4 1 3 4 0 3 2 2 4 4 5 5 5 5 5 5 5 4 4 4 4 4 3 3 3 3 3 4 3 3 3 2 2 4 3 3 3 4 4 4 4 5 6 6
3 1 1 2 3 3 2 4 3 2 4 4 3 3 4 5 5 5 4 5 5 5 5 5 5 5 4 4 3 3 3 3 3 3 3 4 3 3 4 4 4 4 4 4 4 4 5 5 6
2 1 1 2 4 4 4 3 1 1 3 3 4 5 6 6 5 4 4 4 5 5 5 5 6 5 4 4 4 3 3 3 3 2 2 3 3 3 4 4 4 5 5 4 4 4 5 5 6
2 2 1 1 3 4 5 4 2 1 3 4 4 6 7 7 5 4 4 4 4 5 5 5 6 5 5 5 4 4 3 3 3 2 3 3 3 3 4 4 5 5 4 4 4 4 4 5 5
1 1 2 3 3 3 4 4 1 0 1 2 4 5 6 6 5 5 4 4 5 5 5 5 5 5 5 5 5 4 4 3 3 3 3 3 3 3 4 4 4 4 4 4 4 4 4 5 5
1 2 2 2 4 4 4 5 1 2 2 2 4 5 5 5 5 5 5 5 5 5 5 4 5 5 5 5 5 4 4 4 4 3 3 3 3 3 4 5 4 3 4 3 4 5 5 5 6
Wind_Direction
313 297 280 268 240 227 228 231 261 56 38 30 29 21 42 36 36 92 98 59 63 93 104 104 101 100 103 97 92 87 84 83 83 85 85 86 86 84 85 84 85 87 88 88 87 86 85 84 84
305 300 274 244 236 225 219 207 210 39 85 78 56 23 52 57 51 84 61 43 58 85 100 104 97 106 105 102 97 94 88 84 80 83 87 89 89 87 83 83 85 85 87 88 89 88 88 88 85
289 275 265 235 236 238 212 98 107 105 93 74 79 38 36 43 42 49 29 40 66 81 97 99 97 106 104 102 102 100 94 88 82 80 85 88 89 88 85 81 83 86 86 87 88 90 90 89 87
293 250 248 244 232 249 265 19 58 112 103 71 100 96 88 51 29 34 24 35 82 82 91 105 98 97 99 100 104 103 100 94 88 81 82 89 89 89 86 84 80 84 88 89 89 90 93 92 88
252 254 223 227 235 242 344 359 359 63 114 70 92 113 92 58 37 40 37 39 74 79 81 102 101 94 95 100 103 104 103 98 92 87 85 92 94 93 91 88 85 82 90 93 94 92 93 94 90
266 247 230 227 225 209 245 346 16 36 73 37 32 84 105 50 26 19 27 47 53 63 71 88 86 92 95 99 103 104 103 102 96 89 88 90 95 98 99 94 92 88 92 96 94 95 92 95 93
300 269 247 248 237 226 244 360 346 356 58 21 337 74 114 40 14 7 24 49 54 55 58 63 69 80 87 96 103 106 105 101 99 96 93 89 97 102 104 101 97 94 92 99 96 95 95 93 92
316 298 255 255 239 240 27 3 1 4 25 17 2 33 62 11 359 11 29 45 55 54 52 43 47 62 76 93 100 110 108 102 101 102 99 96 101 107 106 107 102 98 95 102 103 100 95 92 91
303 266 254 291 302 16 30 8 5 353 44 42 41 38 38 24 15 28 34 33 34 45 48 35 24 31 45 95 107 109 118 112 107 105 110 108 111 118 112 112 105 103 100 108 114 111 105 96 90
341 236 263 355 2 23 19 8 360 334 293 329 15 33 41 34 26 28 28 25 23 23 31 29 19 16 25 58 113 119 128 129 115 104 108 112 108 120 114 118 112 110 110 114 122 126 123 107 99
3 264 305 4 16 24 4 357 356 305 287 310 350 12 23 28 25 22 15 18 14 9 19 18 10 14 15 14 57 85 101 129 124 118 107 97 95 109 114 118 116 118 121 121 131 142 148 140 128
290 329 346 354 353 354 336 333 330 321 311 13 40 33 22 18 13 9 1 3 3 6 5 11 7 11 13 8 14 39 42 44 96 147 132 98 83 96 120 132 145 152 150 146 159 174 154 131 138
251 258 5 11 353 339 336 297 297 284 305 353 41 360 347 354 352 2 2 359 1 359 1 350 5 10 9 6 1 35 24 359 68 145 156 121 88 82 123 135 143 161 155 158 176 148 122 116 115
51 47 294 279 280 279 287 290 274 265 266 291 273 279 311 331 346 351 4 354 353 354 351 346 355 4 6 13 0 7 25 10 35 86 151 141 143 106 132 142 151 156 156 170 169 132 112 107 102
220 250 257 235 234 213 277 285 243 245 255 261 256 263 273 301 344 337 349 346 341 342 339 342 336 360 3 2 360 353 23 42 33 10 47 134 152 141 133 151 160 161 162 167 150 129 114 111 99
233 238 236 187 187 169 182 271 265 187 226 256 268 288 297 310 339 352 358 346 340 339 341 335 338 345 351 352 345 350 356 25 49 86 86 26 93 155 143 159 161 166 161 145 127 141 123 114 106
220 258 269 227 182 189 227 265 271 223 213 238 251 268 280 302 336 349 348 336 332 341 348 330 336 332 344 346 338 350 339 0 45 112 90 346 94 151 79 158 163 164 154 144 157 143 138 137 120
299 290 284 274 217 263 259 266 272 249 239 242 254 263 272 297 312 332 344 344 337 340 344 332 338 338 347 346 344 350 327 331 359 79 140 193 194 196 272 182 175 159 164 183 159 149 137 140 134
308 290 290 293 304 293 264 271 269 256 234 251 287 283 309 300 318 346 356 358 344 344 346 338 336 332 338 343 335 271 264 248 231 337 197 168 205 223 261 215 192 179 189 191 179 155 149 146 131
304 294 300 311 335 304 275 275 270 257 231 206 265 316 321 321 338 349 351 355 332 327 335 333 325 308 292 327 280 257 252 242 239 290 281 223 222 222 227 173 209 212 192 185 188 156 159 170 162
303 296 305 307 307 268 277 283 232 205 168 133 19 346 343 331 335 344 347 347 351 349 338 321 314 310 298 341 316 290 263 244 229 218 215 268 239 224 227 205 211 220 206 197 201 185 187 185 195
304 348 317 301 307 288 276 289 267 215 197 203 311 336 340 342 344 349 347 346 348 341 342 332 330 320 298 310 271 256 243 240 241 211 217 251 249 235 228 209 216 214 217 203 204 201 207 189 195
317 325 296 279 274 287 255 252 279 188 259 272 288 323 347 353 350 345 345 341 339 341 340 329 333 322 329 319 263 258 259 252 238 219 219 218 242 239 245 233 226 221 225 216 208 210 213 208 203
310 300 277 259 253 269 237 216 281 212 260 308 337 356 350 349 347 341 341 343 341 346 345 335 330 318 324 323 289 266 278 284 260 229 218 222 218 217 238 248 242 234 232 222 216 212 219 220 212
342 1 347 323 239 247 221 217 249 18 55 45 2 344 342 346 343 342 347 342 341 345 346 335 329 317 319 317 308 289 276 267 260 237 220 228 226 228 227 250 247 251 247 235 228 212 219 220 210
304 322 195 264 275 294 298 238 232 100 71 44 26 343 341 343 342 342 343 341 339 339 341 338 332 314 319 315 302 300 296 268 259 251 235 234 231 231 246 246 245 251 250 240 235 222 225 223 217
317 284 287 281 290 279 259 243 235 67 41 16 356 348 337 336 334 336 344 344 340 335 337 335 326 316 320 312 307 301 296 292 284 273 244 238 246 264 263 255 242 242 243 236 231 221 225 225 218
314 325 334 228 284 279 273 259 270 305 325 336 344 340 330 331 332 334 335 336 336 331 332 335 324 322 326 320 307 305 295 290 280 271 247 241 246 260 263 259 249 242 243 238 231 228 227 226 226
199 245 255 253 249 265 281 271 17 124 327 330 330 330 328 331 332 330 330 338 340 336 330 327 325 327 328 322 315 314 306 303 292 277 256 243 254 252 258 260 256 249 248 240 224 233 230 230 229
220 230 198 215 261 247 265 272 2 52 25 358 324 325 326 324 326 326 331 338 338 333 331 327 326 325 323 322 319 314 315 313 300 293 289 260 243 253 258 256 247 252 257 254 235 233 234 234 229
Height
1502 1503 1505 1508 1510 1512 1511 1505 1501 1503 1505 1507 1508 1509 1512 1517 1520 1530 1529 1526 1526 1526 1526 1528 1529 1531 1532 1533 1534 1535 1536 1537 1538 1539 1540 1541 1541 1542 1543 1544 1545 1545 1546 1547 1547 1548 1548 1549 1550
1502 1504 1507 1508 1510 1514 1510 1503 1504 1505 1507 1509 1510 1512 1514 1519 1523 1526 1526 1526 1526 1526 1527 1528 1529 1531 1532 1533 1534 1535 1537 1537 1538 1539 1540 1541 1542 1543 1544 1545 1546 1546 1547 1548 1549 1549 1550 1551 1551
1503 1504 1507 1506 1507 1509 1506 1502 1503 1505 1508 1509 1512 1515 1518 1523 1525 1525 1526 1526 1526 1527 1527 1528 1530 1531 1532 1533 1535 1536 1537 1538 1539 1540 1541 1542 1543 1544 1545 1546 1546 1547 1548 1549 1550 1550 1551 1552 1553
1504 1506 1507 1508 1508 1504 1503 1504 1504 1506 1508 1510 1513 1517 1521 1525 1526 1525 1525 1526 1526 1527 1527 1528 1530 1531 1532 1533 1535 1536 1537 1538 1539 1540 1541 1542 1543 1544 1545 1546 1547 1548 1549 1550 1551 1551 1552 1553 1554
1505 1506 1507 1509 1506 1504 1505 1506 1506 1507 1509 1512 1514 1517 1522 1525 1525 1525 1525 1526 1526 1527 1527 1529 1530 1531 1532 1534 1535 1536 1537 1538 1539 1540 1541 1542 1544 1544 1545 1546 1547 1548 1549 1550 1551 1552 1553 1554 1555
1506 1504 1508 1508 1504 1504 1507 1508 1508 1509 1511 1513 1516 1518 1523 1524 1523 1524 1525 1525 1526 1527 1527 1528 1530 1531 1532 1533 1535 1536 1537 1538 1539 1540 1541 1542 1543 1545 1546 1546 1547 1548 1550 1551 1552 1553 1554 1555 1556
1506 1504 1505 1502 1504 1506 1509 1510 1512 1512 1514 1517 1518 1519 1522 1523 1523 1524 1525 1526 1526 1527 1527 1528 1529 1531 1532 1533 1534 1535 1537 1538 1539 1540 1541 1542 1543 1544 1545 1546 1548 1549 1550 1551 1552 1553 1555 1556 1557
1505 1506 1503 1504 1505 1508 1512 1512 1514 1514 1516 1518 1519 1521 1523 1523 1523 1524 1524 1525 1526 1526 1526 1527 1529 1530 1531 1532 1534 1535 1536 1537 1538 1539 1541 1542 1543 1544 1545 1546 1547 1549 1550 1551 1552 1554 1555 1556 1558
1506 1509 1509 1507 1508 1512 1514 1514 1515 1516 1517 1519 1520 1522 1523 1523 1523 1523 1524 1524 1525 1526 1526 1527 1528 1529 1530 1532 1533 1534 1535 1537 1538 1539 1540 1541 1542 1543 1544 1546 1547 1548 1549 1551 1552 1554 1555 1556 1558
1508 1512 1512 1513 1512 1514 1516 1517 1518 1517 1517 1519 1520 1521 1522 1522 1522 1522 1522 1523 1523 1524 1525 1526 1527 1528 1529 1530 1532 1533 1534 1535 1537 1538 1539 1540 1541 1542 1543 1545 1546 1548 1549 1550 1552 1553 1555 1556 1558
1511 1514 1513 1515 1515 1516 1517 1519 1519 1518 1519 1520 1521 1521 1520 1520 1521 1521 1522 1522 1523 1523 1524 1525 1526 1527 1528 1529 1530 1531 1532 1534 1535 1537 1538 1539 1540 1541 1542 1544 1545 1547 1548 1550 1551 1553 1554 1556 1557
1514 1515 1516 1518 1518 1518 1519 1520 1520 1520 1520 1520 1520 1520 1520 1520 1520 1520 1521 1521 1522 1522 1523 1523 1524 1525 1526 1527 1528 1530 1531 1532 1533 1535 1537 1538 1539 1540 1541 1543 1544 1546 1547 1549 1551 1552 1554 1555 1557
1515 1517 1518 1519 1519 1520 1520 1521 1521 1519 1518 1519 1519 1519 1519 1519 1519 1520 1520 1521 1521 1521 1521 1522 1523 1523 1525 1526 1527 1528 1529 1530 1532 1533 1535 1536 1537 1538 1540 1541 1543 1545 1546 1548 1550 1551 1553 1554 1556
1516 1518 1519 1519 1519 1520 1520 1520 1520 1517 1517 1517 1517 1517 1518 1518 1518 1518 1518 1518 1518 1519 1519 1520 1521 1522 1523 1523 1525 1526 1527 1529 1530 1532 1533 1535 1536 1537 1538 1540 1541 1543 1545 1547 1548 1550 1551 1553 1555
1517 1518 1518 1517 1517 1518 1520 1519 1517 1515 1516 1516 1516 1516 1517 1517 1517 1516 1516 1516 1516 1517 1517 1518 1518 1519 1520 1521 1522 1524 1525 1526 1528 1529 1531 1533 1534 1535 1536 1538 1540 1541 1543 1545 1547 1549 1550 1552 1554
1516 1517 1517 1515 1515 1517 1521 1519 1514 1515 1515 1515 1515 1515 1515 1515 1515 1515 1514 1514 1515 1515 1515 1516 1516 1517 1518 1519 1520 1521 1523 1524 1525 1527 1529 1530 1532 1533 1535 1536 1538 1540 1542 1543 1545 1547 1548 1550 1552
1516 1516 1513 1516 1515 1516 1519 1517 1514 1514 1514 1514 1514 1514 1514 1513 1513 1513 1513 1513 1513 1513 1513 1513 1514 1515 1515 1517 1518 1519 1520 1522 1523 1525 1526 1528 1529 1531 1532 1534 1536 1538 1540 1541 1543 1545 1547 1549 1550
1520 1517 1514 1516 1515 1516 1517 1515 1513 1512 1512 1512 1512 1512 1512 1511 1512 1511 1511 1510 1510 1511 1511 1511 1512 1512 1513 1514 1515 1516 1517 1519 1520 1522 1523 1525 1527 1528 1530 1532 1533 1535 1537 1539 1541 1543 1545 1547 1548
1518 1518 1517 1516 1516 1517 1515 1513 1510 1509 1509 1510 1510 1510 1510 1510 1510 1510 1509 1509 1508 1508 1508 1509 1509 1509 1510 1511 1512 1513 1514 1516 1517 1519 1520 1522 1524 1525 1527 1529 1530 1532 1534 1536 1538 1541 1543 1544 1546
1520 1520 1518 1516 1516 1517 1514 1510 1507 1507 1506 1507 1508 1508 1508 1507 1507 1507 1507 1506 1506 1506 1506 1506 1506 1507 1507 1507 1509 1510 1511 1513 1514 1516 1517 1519 1521 1522 1524 1525 1527 1529 1531 1533 1536 1538 1540 1542 1544
1520 1521 1520 1520 1518 1514 1514 1509 1504 1503 1504 1505 1506 1507 1507 1506 1506 1505 1505 1504 1504 1503 1503 1503 1504 1503 1503 1504 1506 1508 1509 1510 1511 1512 1513 1516 1517 1519 1520 1522 1524 1526 1528 1529 1532 1534 1536 1538 1541
1521 1520 1520 1521 1522 1519 1516 1518 1504 1501 1502 1503 1505 1505 1505 1505 1504 1504 1503 1503 1502 1501 1501 1501 1500 1500 1500 1501 1502 1504 1504 1505 1506 1508 1510 1512 1514 1515 1517 1518 1520 1522 1524 1526 1528 1531 1533 1535 1537
1523 1521 1520 1519 1520 1522 1517 1520 1507 1501 1503 1503 1504 1504 1504 1503 1502 1502 1501 1500 1500 1499 1498 1497 1497 1497 1497 1497 1499 1500 1501 1502 1503 1505 1506 1508 1509 1511 1513 1514 1516 1518 1520 1522 1524 1526 1529 1531 1533
1524 1521 1518 1517 1519 1525 1513 1516 1509 1505 1503 1502 1502 1503 1503 1502 1501 1500 1498 1498 1497 1496 1495 1495 1494 1494 1494 1494 1495 1496 1497 1498 1500 1500 1502 1504 1505 1507 1509 1510 1512 1514 1515 1517 1519 1522 1525 1527 1530
1526 1528 1528 1525 1523 1518 1508 1511 1511 1504 1502 1502 1502 1502 1501 1500 1499 1497 1495 1494 1494 1493 1492 1492 1491 1491 1491 1490 1491 1492 1493 1495 1495 1496 1498 1500 1501 1502 1504 1505 1507 1509 1511 1513 1515 1517 1520 1523 1525
1529 1530 1535 1533 1522 1514 1512 1512 1506 1502 1502 1502 1502 1502 1500 1499 1497 1495 1494 1493 1492 1491 1490 1489 1489 1488 1487 1487 1488 1489 1490 1491 1492 1493 1494 1496 1497 1498 1500 1501 1503 1505 1506 1508 1510 1512 1515 1518 1520
1529 1531 1530 1533 1528 1527 1512 1503 1503 1501 1501 1502 1501 1501 1499 1497 1495 1494 1493 1492 1491 1489 1488 1488 1487 1486 1485 1484 1484 1485 1486 1487 1488 1489 1491 1492 1493 1494 1496 1497 1498 1500 1502 1503 1505 1507 1510 1513 1515
1531 1531 1534 1535 1532 1523 1509 1504 1505 1504 1503 1502 1502 1500 1498 1496 1494 1492 1491 1490 1489 1487 1486 1485 1485 1483 1482 1481 1481 1481 1482 1483 1484 1485 1487 1487 1488 1490 1491 1492 1493 1495 1497 1499 1500 1502 1505 1507 1510
1534 1534 1534 1532 1529 1528 1520 1512 1503 1503 1502 1502 1502 1500 1498 1496 1494 1492 1490 1489 1487 1486 1485 1484 1482 1481 1480 1479 1478 1478 1478 1479 1480 1481 1481 1483 1484 1485 1486 1488 1489 1490 1492 1494 1495 1497 1499 1502 1504
1531 1532 1534 1538 1533 1527 1525 1516 1503 1501 1501 1501 1501 1500 1498 1496 1494 1491 1489 1487 1486 1484 1483 1481 1479 1478 1477 1476 1475 1474 1475 1476 1476 1477 1477 1479 1480 1481 1483 1484 1485 1486 1487 1488 1490 1492 1494 1496 1498